Back to catalog

SJ-26

AliveScienceSSO
NORAD 64199·PAYLOAD·🇨🇳 China

Launched May 29, 2025 from Jiuquan Satellite Launch Center

Loading…

Next Passes (next 24 hours)

TLE

FreshSource: Space-Track

Epoch: Sep 14, 2026, 03:49 UTC

1 64199U 25115A   26257.15936767  .00004057  00000-0  16742-3 0  9998
2 64199  97.4496 335.1697 0019579  43.8849 316.3940 15.24444227 71998

Track SJ-26 in real time with AllMySat

Download on the App Store